Location: Armidale
(30.5016°S, 151.6662°E)
Time: 01:33:57
(UTC+10:00)

JUGNU - Visible Passes

Search period start: 04 August 2021 00:00
Search period end: 14 August 2021 00:00
Orbit: 836 x 863 km, 20.0° (Epoch: 03 August)

Date Brightness Start Highest point End Pass type
(mag) Time Alt. Az. Time Alt. Az. Time Alt. Az.
04 Aug ? 19:22:44 10° WNW 19:26:50 20° NNW 19:28:40 17° N visible
05 Aug ? 19:07:40 10° WNW 19:11:33 18° NNW 19:14:42 12° NNE visible
06 Aug ? 18:52:38 10° NW 18:56:16 17° NNW 18:59:55 10° NNE visible
07 Aug ? 18:37:38 10° NW 18:40:59 16° NNW 18:44:21 10° NNE visible
08 Aug ? 18:22:42 10° NW 18:25:42 14° NNW 18:28:43 10° NNE visible
09 Aug ? 18:07:52 10° NW 18:10:25 13° NNW 18:12:59 10° N visible
10 Aug ? 17:53:10 10° NW 17:55:09 12° NNW 17:57:07 10° N visible
